| time (UTC) | temp F | wind direction | speed knots | gust knots | rain 1hr in | rain 24hr in | rain mn in | humidity % | barometer mb |
| 20260903043137 | 78 | 218 | 0.9 | 1.7 | 0.00 | 0.00 | 0.00 | 80 | 1016.7 |
| 20260903041544 | 78 | 219 | 0.9 | 2.6 | 0.00 | 0.00 | 0.00 | 80 | 1016.8 |
| 20260903040047 | 78 | 184 | 0.9 | 2.6 | 0.00 | 0.00 | 0.00 | 80 | 1016.7 |
| 20260903034541 | 78 | 219 | 0.0 | 1.7 | 0.00 | 0.00 | 0.00 | 80 | 1016.6 |
| 20260903033049 | 78 | 192 | 0.9 | 2.6 | 0.00 | 0.00 | 0.00 | 80 | 1016.7 |
| 20260903031543 | 79 | 227 | 0.9 | 2.6 | 0.00 | 0.00 | 0.00 | 80 | 1017.1 |
| 20260903030040 | 79 | 0 | 0.0 | 1.7 | 0.00 | 0.00 | 0.00 | 80 | 1017.2 |
| 20260903024546 | 79 | 223 | 0.0 | 1.7 | 0.00 | 0.00 | 0.00 | 80 | 1017.2 |
| 20260903023041 | 80 | 0 | 0.0 | 1.7 | 0.00 | 0.00 | 0.00 | 80 | 1017.3 |
| 20260903021541 | 80 | 209 | 0.0 | 1.7 | 0.00 | 0.00 | 0.00 | 79 | 1017.4 |
| 20260903020042 | 80 | 360 | 0.0 | 1.7 | 0.00 | 0.00 | 0.00 | 79 | 1017.4 |
| 20260903014547 | 81 | 218 | 0.0 | 2.6 | 0.00 | 0.00 | 0.00 | 79 | 1017.3 |
| 20260903013050 | 81 | 215 | 0.0 | 1.7 | 0.00 | 0.00 | 0.00 | 78 | 1017.2 |
| 20260903011539 | 81 | 213 | 0.0 | 1.7 | 0.00 | 0.00 | 0.00 | 78 | 1017.2 |
| 20260903010042 | 82 | 0 | 0.0 | 2.6 | 0.00 | 0.00 | 0.00 | 78 | 1016.8 |
| 20260903004539 | 82 | 0 | 0.0 | 1.7 | 0.00 | 0.00 | 0.00 | 77 | 1016.7 |
| 20260903003041 | 83 | 252 | 0.0 | 0.9 | 0.00 | 0.00 | 0.00 | 75 | 1016.6 |
| 20260903001544 | 85 | 0 | 0.0 | 0.0 | 0.00 | 0.00 | 0.00 | 72 | 1016.7 |
| 20260903000039 | 86 | 0 | 0.0 | 0.9 | 0.00 | 0.00 | 0.00 | 70 | 1016.7 |
| 20260902234540 | 87 | 0 | 0.0 | 0.9 | 0.00 | 0.00 | 0.00 | 68 | 1016.6 |
| 20260902233043 | 88 | 0 | 0.0 | 3.5 | 0.00 | 0.00 | 0.00 | 66 | 1016.6 |
| 20260902231543 | 89 | 0 | 0.0 | 2.6 | 0.00 | 0.00 | 0.00 | 64 | 1016.5 |
| 20260902230038 | 90 | 0 | 0.0 | 2.6 | 0.00 | 0.00 | 0.00 | 64 | 1016.6 |
| 20260902224600 | 91 | 265 | 0.9 | 2.6 | 0.00 | 0.00 | 0.00 | 59 | 1016.7 |
| 20260902223044 | 91 | 360 | 0.9 | 2.6 | 0.00 | 0.00 | 0.00 | 59 | 1016.6 |
| 20260902221545 | 92 | 268 | 0.9 | 3.5 | 0.00 | 0.00 | 0.00 | 56 | 1016.7 |
| 20260902220050 | 92 | 360 | 0.9 | 5.2 | 0.00 | 0.00 | 0.00 | 55 | 1016.7 |
| 20260902214540 | 93 | 264 | 0.9 | 4.3 | 0.00 | 0.00 | 0.00 | 53 | 1016.9 |
| 20260902213039 | 92 | 360 | 1.7 | 5.2 | 0.00 | 0.00 | 0.00 | 53 | 1017.0 |
| 20260902211544 | 92 | 360 | 0.9 | 3.5 | 0.00 | 0.00 | 0.00 | 56 | 1017.0 |
| 20260902210045 | 92 | 360 | 1.7 | 5.2 | 0.00 | 0.00 | 0.00 | 54 | 1017.3 |
| 20260902204541 | 92 | 0 | 1.7 | 8.7 | 0.00 | 0.00 | 0.00 | 55 | 1017.3 |
| 20260902203039 | 93 | 360 | 1.7 | 7.8 | 0.00 | 0.00 | 0.00 | 55 | 1017.4 |
| 20260902201601 | 92 | 360 | 1.7 | 7.0 | 0.00 | 0.00 | 0.00 | 55 | 1017.4 |
| 20260902200103 | 92 | 360 | 2.6 | 7.8 | 0.00 | 0.00 | 0.00 | 55 | 1017.6 |
| 20260902194538 | 91 | 360 | 2.6 | 7.0 | 0.00 | 0.00 | 0.00 | 55 | 1017.6 |
| 20260902193038 | 92 | 227 | 0.9 | 7.8 | 0.00 | 0.00 | 0.00 | 54 | 1017.8 |
| 20260902191546 | 92 | 360 | 1.7 | 7.0 | 0.00 | 0.00 | 0.00 | 53 | 1017.9 |
| 20260902190054 | 91 | 213 | 1.7 | 7.8 | 0.00 | 0.00 | 0.00 | 59 | 1018.0 |
| 20260902184540 | 91 | 360 | 0.9 | 4.3 | 0.00 | 0.00 | 0.00 | 59 | 1018.1 |
| 20260902183050 | 92 | 360 | 1.7 | 7.0 | 0.00 | 0.00 | 0.00 | 57 | 1018.2 |
| 20260902181544 | 92 | 360 | 0.9 | 2.6 | 0.00 | 0.00 | 0.00 | 59 | 1018.2 |
| 20260902180039 | 90 | 360 | 1.7 | 8.7 | 0.00 | 0.00 | 0.00 | 59 | 1018.5 |
| 20260902174539 | 90 | 360 | 1.7 | 11.3 | 0.00 | 0.00 | 0.00 | 58 | 1018.7 |
| 20260902173040 | 90 | 341 | 0.9 | 6.1 | 0.00 | 0.00 | 0.00 | 61 | 1018.8 |
| 20260902171542 | 89 | 360 | 2.6 | 10.4 | 0.00 | 0.00 | 0.00 | 60 | 1018.9 |
| 20260902170042 | 89 | 194 | 0.9 | 4.3 | 0.00 | 0.00 | 0.00 | 63 | 1018.9 |
| 20260902164544 | 89 | 360 | 0.9 | 3.5 | 0.00 | 0.00 | 0.00 | 67 | 1019.0 |
| 20260902163042 | 89 | 263 | 1.7 | 4.3 | 0.00 | 0.00 | 0.00 | 65 | 1019.2 |
| 20260902161545 | 88 | 0 | 1.7 | 4.3 | 0.00 | 0.00 | 0.00 | 68 | 1019.3 |
| 20260902160047 | 88 | 274 | 1.7 | 4.3 | 0.00 | 0.00 | 0.00 | 68 | 1019.3 |
| 20260902154547 | 87 | 293 | 0.9 | 7.0 | 0.00 | 0.00 | 0.00 | 69 | 1019.4 |
| 20260902153039 | 86 | 360 | 1.7 | 5.2 | 0.00 | 0.00 | 0.00 | 70 | 1019.5 |
| 20260902151539 | 86 | 360 | 1.7 | 5.2 | 0.00 | 0.00 | 0.00 | 69 | 1019.6 |
| 20260902150048 | 85 | 0 | 0.9 | 3.5 | 0.00 | 0.00 | 0.00 | 72 | 1019.5 |
| 20260902144542 | 84 | 360 | 0.9 | 3.5 | 0.00 | 0.00 | 0.00 | 74 | 1019.5 |
| 20260902143043 | 83 | 360 | 0.9 | 3.5 | 0.00 | 0.00 | 0.00 | 75 | 1019.5 |
| 20260902141540 | 82 | 360 | 0.9 | 5.2 | 0.00 | 0.00 | 0.00 | 76 | 1019.4 |
| 20260902140048 | 81 | 360 | 1.7 | 7.0 | 0.00 | 0.00 | 0.00 | 76 | 1019.4 |
| 20260902134546 | 81 | 261 | 0.9 | 4.3 | 0.00 | 0.00 | 0.00 | 76 | 1019.4 |
| 20260902133044 | 80 | 215 | 1.7 | 5.2 | 0.00 | 0.00 | 0.00 | 78 | 1019.3 |
| 20260902132337 | 80 | 360 | 2.6 | 5.2 | 0.00 | 0.00 | 0.00 | 78 | 1017.0 |
| 20260902131542 | 79 | 360 | 0.9 | 4.3 | 0.00 | 0.00 | 0.00 | 80 | 1019.3 |
| 20260902130044 | 77 | 255 | 0.9 | 5.2 | 0.00 | 0.00 | 0.00 | 82 | 1019.4 |
| 20260902124550 | 76 | 248 | 0.9 | 3.5 | 0.00 | 0.00 | 0.00 | 85 | 1019.2 |
| 20260902123043 | 75 | 233 | 0.9 | 2.6 | 0.00 | 0.00 | 0.00 | 86 | 1019.2 |
| 20260902121539 | 74 | 360 | 0.9 | 4.3 | 0.00 | 0.00 | 0.00 | 88 | 1019.0 |
| 20260902120046 | 73 | 206 | 0.9 | 3.5 | 0.00 | 0.00 | 0.00 | 89 | 1018.9 |
| 20260902114541 | 72 | 0 | 0.9 | 2.6 | 0.00 | 0.00 | 0.00 | 90 | 1018.8 |
| 20260902111549 | 72 | 225 | 0.9 | 2.6 | 0.00 | 0.00 | 0.00 | 89 | 1018.6 |
| 20260902110041 | 72 | 219 | 0.0 | 2.6 | 0.00 | 0.00 | 0.00 | 89 | 1018.6 |
| 20260902104543 | 72 | 0 | 0.0 | 0.0 | 0.00 | 0.00 | 0.00 | 89 | 1018.6 |
| 20260902103040 | 73 | 0 | 0.0 | 0.0 | 0.00 | 0.00 | 0.00 | 88 | 1018.6 |
| 20260902101543 | 73 | 0 | 0.0 | 0.0 | 0.00 | 0.00 | 0.00 | 88 | 1018.5 |
| 20260902100040 | 73 | 0 | 0.0 | 0.0 | 0.00 | 0.00 | 0.00 | 88 | 1018.5 |
| 20260902094547 | 73 | 0 | 0.0 | 1.7 | 0.00 | 0.00 | 0.00 | 88 | 1018.5 |
| 20260902093046 | 73 | 197 | 0.0 | 1.7 | 0.00 | 0.00 | 0.00 | 87 | 1018.4 |
| 20260902091545 | 73 | 0 | 0.0 | 1.7 | 0.00 | 0.00 | 0.00 | 87 | 1018.3 |
| 20260902090040 | 74 | 0 | 0.0 | 2.6 | 0.00 | 0.00 | 0.00 | 86 | 1018.2 |
| 20260902084541 | 74 | 0 | 0.0 | 1.7 | 0.00 | 0.00 | 0.00 | 86 | 1018.1 |
| 20260902083042 | 74 | 223 | 0.0 | 2.6 | 0.00 | 0.00 | 0.00 | 85 | 1018.0 |
| 20260902081550 | 74 | 216 | 0.9 | 2.6 | 0.00 | 0.00 | 0.00 | 85 | 1017.9 |
| 20260902080038 | 74 | 223 | 0.0 | 1.7 | 0.00 | 0.00 | 0.00 | 85 | 1017.8 |
| 20260902074541 | 74 | 218 | 0.0 | 1.7 | 0.00 | 0.00 | 0.00 | 85 | 1017.8 |
| 20260902073039 | 74 | 0 | 0.0 | 1.7 | 0.00 | 0.00 | 0.00 | 85 | 1017.7 |
| 20260902071542 | 75 | 0 | 0.0 | 2.6 | 0.00 | 0.00 | 0.00 | 84 | 1017.6 |
| 20260902070047 | 75 | 0 | 0.0 | 2.6 | 0.00 | 0.00 | 0.00 | 84 | 1017.7 |
| 20260902064541 | 75 | 0 | 0.9 | 2.6 | 0.00 | 0.00 | 0.00 | 84 | 1017.8 |
| 20260902063046 | 75 | 360 | 0.0 | 1.7 | 0.00 | 0.00 | 0.00 | 84 | 1017.7 |
| 20260902061546 | 75 | 0 | 0.0 | 0.9 | 0.00 | 0.00 | 0.00 | 83 | 1017.7 |
| 20260902060044 | 76 | 0 | 0.0 | 1.7 | 0.00 | 0.00 | 0.00 | 83 | 1017.8 |
| 20260902054538 | 76 | 0 | 0.0 | 2.6 | 0.00 | 0.00 | 0.00 | 83 | 1017.7 |
| 20260902053039 | 76 | 229 | 0.9 | 2.6 | 0.00 | 0.00 | 0.00 | 83 | 1017.8 |
| 20260902051546 | 76 | 360 | 0.9 | 2.6 | 0.00 | 0.00 | 0.00 | 83 | 1017.8 |
| 20260902050041 | 76 | 223 | 0.0 | 1.7 | 0.00 | 0.00 | 0.00 | 83 | 1017.8 |
| 20260902044540 | 76 | 0 | 0.0 | 0.9 | 0.00 | 0.00 | 0.00 | 82 | 1017.8 |